Location: Ferma
(41.9500°N, 44.5167°E)
Time: 05:38:27
(UTC+00:00)

Cosmos 1269 Rocket - Pass Details

Date: 03 June 2022
Orbit: 773 x 778 km, 74.1° (Epoch: 03 July)

Event Time Altitude Azimuth Distance (km) Brightness Sun altitude
Rises 19:34:35 0° 354° (N) 3,258 8.6 -22.7°
Reaches altitude 10° 19:37:55 10° 16° (NNE) 2,327 7.2 -22.9°
Maximum altitude 19:41:10 16° 54° (NE) 1,923 6.2 -23.1°
Enters shadow 19:43:44 12° 86° (E) 2,181 6.2 -23.3°
